Terminal Aerodrome Forecast
Issued by NWS

Home | Current Version | Previous Version | Text Only | Print | Product List | Glossary On
Versions: 1 2 3 4 5 6 7 8 9 10 11 12 13 14 15
000
FTUS42 TJSJ 202300
TAFNCM
TAF
TNCM 202337Z 2100/2124 10009KT P6SM VCSH SCT018
     FM211600 10012KT P6SM SCT022
     FM212200 08011KT P6SM VCSH SCT018=

USA.gov is the U.S. government's official web portal to all federal, state and local government web resources and services.